CAPE
0 0 0 0 0 0 0 0 0 0 0 0 0 0 0 0 0 0 0 606 1155 1436 1387 1417 1789 1986 1888 1841 1745 1707 1679 1497 1024 1311 1050 559 243 54 7 0 2 9 5 0 0 0 0 0 0
0 0 0 0 0 0 0 0 0 0 0 0 0 0 0 0 0 0 0 834 1259 1444 1491 1388 1420 1831 1829 1778 1713 1698 1582 1252 978 1297 1045 508 154 9 0 0 0 4 1 0 0 0 0 0 0
0 0 0 0 0 0 0 0 0 0 0 0 0 0 0 0 0 0 0 739 1176 1408 1461 1257 1310 1700 1695 1730 1764 1736 1511 1241 940 1206 989 494 171 41 1 0 0 0 0 0 0 0 0 0 0
0 0 0 0 0 0 0 0 0 0 0 0 0 0 0 0 0 0 0 943 1024 1257 1346 960 1258 1580 1628 1616 1581 1637 1317 919 893 1060 905 548 203 58 0 0 0 0 0 0 0 0 0 0 0
0 0 0 0 0 0 0 0 0 0 0 0 0 0 0 0 0 0 0 295 922 1155 1051 964 1200 1527 1493 1427 1494 1467 1386 1109 921 1032 786 621 219 64 31 0 0 0 0 0 0 0 0 0 0
0 0 0 0 0 0 0 0 0 0 0 0 0 0 0 0 0 0 0 0 106 862 1115 1053 918 870 1109 1278 1332 1281 1284 1111 1085 1070 830 644 302 147 113 0 0 0 0 0 0 0 0 0 0
0 0 0 0 0 0 0 0 0 0 0 0 0 0 0 0 0 0 0 0 0 0 15 441 725 363 587 858 790 890 1040 982 932 937 933 723 548 401 312 127 13 3 0 0 0 0 0 0 0
0 0 0 0 0 0 0 0 0 0 0 0 0 0 0 0 0 0 0 0 0 0 0 0 0 403 566 402 687 655 659 606 626 481 363 272 164 103 55 34 36 0 0 0 0 0 0 0 0
0 0 0 0 0 0 0 0 0 0 0 0 0 0 0 0 0 0 0 0 0 0 0 0 0 0 31 351 242 513 504 495 415 274 138 21 0 2 4 16 46 25 11 4 0 0 0 0 0
0 0 0 0 0 0 0 0 0 0 0 0 0 0 0 0 0 0 0 0 0 0 0 0 0 0 0 0 207 421 347 182 149 93 0 0 0 1 0 0 4 3 2 8 0 0 0 0 0
0 0 0 0 0 0 0 0 0 0 0 0 0 0 0 0 0 0 0 0 0 0 0 0 0 0 0 0 7 67 31 8 6 139 9 8 2 0 0 0 0 0 0 0 0 0 0 0 0
0 0 0 0 0 0 0 0 0 0 0 0 0 0 0 0 0 0 0 0 0 0 0 0 0 0 0 0 0 0 0 0 0 0 1 1 0 0 0 0 0 0 0 0 0 0 0 0 0
0 0 0 0 0 0 0 0 0 0 0 0 0 0 0 0 0 0 0 0 0 0 0 0 0 0 0 0 1 0 0 0 0 0 0 0 1 1 0 0 0 0 0 0 0 0 0 0 0
0 0 0 0 0 0 0 0 0 0 0 0 0 0 0 0 0 0 0 0 0 0 0 0 0 0 0 0 0 0 0 0 0 0 0 0 0 0 0 0 0 0 0 0 0 0 0 0 0
0 0 0 0 0 0 0 0 0 0 0 0 0 0 0 0 0 0 0 0 0 0 0 0 0 0 0 0 0 0 0 0 0 0 0 0 0 0 0 0 0 0 0 0 0 0 0 0 0
0 0 0 0 0 0 0 0 0 0 0 0 0 0 0 0 0 0 0 0 0 0 0 0 0 0 0 0 0 0 0 0 0 0 0 0 0 0 0 0 0 0 0 0 0 0 0 0 0
0 0 0 0 0 0 0 0 0 0 0 0 0 0 0 0 0 0 0 0 0 0 0 0 0 0 0 0 0 0 0 0 0 0 0 0 0 0 0 0 0 0 0 0 0 0 0 0 0
0 0 0 0 0 0 0 0 0 0 0 0 0 0 0 0 0 0 0 0 0 0 0 0 0 0 0 0 0 0 0 0 0 0 0 0 0 0 0 0 0 0 0 0 0 0 0 0 0
0 0 0 0 0 0 0 0 0 0 0 0 0 0 0 0 0 0 0 0 0 0 0 0 0 0 0 0 0 0 0 0 0 0 0 0 0 0 0 0 0 0 0 0 0 0 0 0 0
0 0 0 0 0 0 0 0 0 0 0 0 0 0 0 0 0 0 0 0 0 0 0 0 0 0 0 0 0 0 0 0 0 0 0 0 0 0 0 0 0 0 0 0 0 0 0 0 0
0 0 0 0 0 0 0 0 0 0 0 0 0 0 0 0 0 0 0 0 0 0 0 0 0 0 0 0 0 0 0 0 0 0 0 0 0 0 0 0 0 0 0 0 0 0 0 0 0
0 0 0 0 0 0 0 0 0 0 0 0 0 0 0 0 0 0 0 0 0 0 0 0 0 0 0 0 0 0 0 0 0 0 0 0 0 0 0 0 0 0 0 0 0 0 0 0 0
0 0 0 0 0 0 0 0 0 0 0 0 0 0 0 0 0 0 0 0 0 0 0 0 0 0 0 0 0 0 0 0 0 0 0 0 0 0 0 0 0 0 0 0 0 0 0 0 0
0 0 0 0 0 0 0 0 0 0 0 0 0 0 0 0 0 0 0 0 0 0 0 0 0 0 0 0 0 0 0 0 0 0 0 0 0 0 0 0 0 0 0 0 0 0 0 0 0
0 0 0 0 0 0 0 0 0 0 0 0 0 0 0 0 0 0 0 0 0 0 0 0 0 0 0 0 0 0 0 0 0 0 0 0 0 0 0 0 0 0 0 0 0 0 0 0 0
0 0 0 0 0 0 0 0 0 0 0 0 0 0 0 0 0 0 0 0 0 0 0 0 0 0 0 0 0 0 0 0 0 0 0 0 0 0 0 0 0 0 0 0 0 0 0 0 0
0 0 0 0 0 0 0 0 0 0 0 0 0 0 0 0 0 0 0 0 0 0 0 0 0 0 0 0 0 0 0 0 0 0 0 0 0 0 0 0 0 0 0 0 0 0 0 0 0
0 0 0 0 0 0 0 0 0 0 0 0 0 0 0 0 0 0 0 0 0 0 0 0 0 0 0 0 0 0 0 0 0 0 0 0 0 0 0 0 0 0 0 0 0 0 0 0 0
0 0 0 0 0 0 0 0 0 0 0 0 0 0 0 0 0 0 0 0 0 0 0 0 0 0 0 0 0 0 0 0 0 0 0 0 0 0 0 0 0 0 0 0 0 0 0 0 0
0 0 0 0 0 0 0 0 0 0 0 0 0 0 0 0 0 0 0 0 0 0 0 0 0 0 0 0 0 0 0 0 0 0 0 0 0 0 0 0 0 0 0 0 0 0 0 0 0
CIN
-0 -0 -0 -0 -0 -0 -0 -0 -0 -0 -0 -0 -0 -0 -0 -0 -0 -0 -0 -128 -76 -33 -24 -19 -2 -0 -0 -0 -1 -1 -0 -0 -0 -0 -0 -0 -11 -72 -122 -0 -0 -0 -0 -0 -0 -0 -0 -0 -0
-0 -0 -0 -0 -0 -0 -0 -0 -0 -0 -0 -0 -0 -0 -0 -0 -0 -0 -0 -64 -50 -30 -16 -21 -15 -0 -0 -1 -1 -0 -0 -0 -0 -0 -0 -0 -14 -62 -0 -0 -0 -0 -0 -0 -0 -0 -0 -0 -0
-0 -0 -0 -0 -0 -0 -0 -0 -0 -0 -0 -0 -0 -0 -0 -0 -0 -0 -0 -89 -48 -25 -20 -32 -27 -6 -2 -0 -0 -0 -0 -0 -0 -0 -0 -0 -4 -71 -0 -0 -0 -0 -0 -0 -0 -0 -0 -0 -0
-0 -0 -0 -0 -0 -0 -0 -0 -0 -0 -0 -0 -0 -0 -0 -0 -0 -0 -0 -78 -59 -42 -31 -49 -30 -12 -8 -6 -1 -0 -0 -0 -0 -0 -0 -0 -2 -61 -0 -0 -0 -0 -0 -0 -0 -0 -0 -0 -0
-0 -0 -0 -0 -0 -0 -0 -0 -0 -0 -0 -0 -0 -0 -0 -0 -0 -0 -0 -245 -64 -44 -51 -54 -30 -19 -29 -19 -9 -1 -0 -0 -0 -0 -0 -0 -0 -43 -86 -0 -0 -0 -0 -0 -0 -0 -0 -0 -0
-0 -0 -0 -0 -0 -0 -0 -0 -0 -0 -0 -0 -0 -0 -0 -0 -0 -0 -0 -0 -142 -79 -46 -54 -44 -35 -22 -19 -10 -6 -3 -6 -2 -0 -0 -0 -2 -25 -56 -0 -0 -0 -0 -0 -0 -0 -0 -0 -0
-0 -0 -0 -0 -0 -0 -0 -0 -0 -0 -0 -0 -0 -0 -0 -0 -0 -0 -0 -0 -0 -0 -49 -143 -59 -141 -65 -17 -17 -13 -8 -7 -5 -2 -1 -0 -0 -7 -30 -78 -7 -21 -0 -0 -0 -0 -0 -0 -0
-0 -0 -0 -0 -0 -0 -0 -0 -0 -0 -0 -0 -0 -0 -0 -0 -0 -0 -0 -0 -0 -0 -0 -0 -0 -92 -51 -77 -20 -20 -18 -20 -15 -16 -20 -31 -56 -94 -128 -140 -110 -0 -1 -0 -0 -0 -0 -0 -0
-0 -0 -0 -0 -0 -0 -0 -0 -0 -0 -0 -0 -0 -0 -0 -0 -0 -0 -0 -0 -0 -0 -0 -0 -0 -0 -147 -87 -122 -34 -18 -22 -29 -49 -73 -83 -0 -39 -55 -19 -51 -2 -19 -46 -0 -0 -0 -0 -0
-0 -0 -0 -0 -0 -0 -0 -0 -0 -0 -0 -0 -0 -0 -0 -0 -0 -0 -0 -0 -0 -0 -0 -0 -0 -0 -0 -0 -135 -81 -86 -108 -108 -123 -2 -0 -0 -31 -0 -12 -6 -2 -1 -29 -9 -0 -0 -0 -0
-0 -0 -0 -0 -0 -0 -0 -0 -0 -0 -0 -0 -0 -0 -0 -0 -0 -0 -0 -0 -0 -0 -0 -0 -0 -0 -0 -0 -114 -197 -102 -20 -24 -101 -68 -48 -31 -0 -0 -0 -0 -0 -0 -0 -0 -0 -0 -0 -0
-0 -0 -0 -0 -0 -0 -0 -0 -0 -0 -0 -0 -0 -0 -0 -0 -0 -0 -0 -0 -0 -0 -0 -0 -0 -0 -0 -0 -0 -0 -0 -0 -0 -0 -53 -67 -0 -0 -0 -1 -0 -0 -0 -0 -0 -0 -0 -0 -0
-0 -0 -0 -0 -0 -0 -0 -0 -0 -0 -0 -0 -0 -0 -0 -0 -0 -0 -0 -0 -0 -0 -0 -0 -0 -0 -0 -0 -0 -0 -0 -0 -0 -0 -0 -0 -0 -0 -0 -0 -0 -0 -0 -0 -0 -0 -0 -0 -0
-0 -0 -0 -0 -0 -0 -0 -0 -0 -0 -0 -0 -0 -0 -0 -0 -0 -0 -0 -0 -0 -0 -0 -0 -0 -0 -0 -0 -0 -0 -0 -0 -0 -0 -0 -0 -0 -0 -0 -0 -0 -0 -0 -0 -0 -0 -0 -0 -0
-0 -0 -0 -0 -0 -0 -0 -0 -0 -0 -0 -0 -0 -0 -0 -0 -0 -0 -0 -0 -0 -0 -0 -0 -0 -0 -0 -0 -0 -0 -0 -0 -0 -0 -0 -0 -0 -0 -0 -0 -0 -0 -0 -0 -0 -0 -0 -0 -0
-0 -0 -0 -0 -0 -0 -0 -0 -0 -0 -0 -0 -0 -0 -0 -0 -0 -0 -0 -0 -0 -0 -0 -0 -0 -0 -0 -0 -0 -0 -0 -0 -0 -0 -0 -0 -0 -0 -0 -0 -0 -0 -0 -0 -0 -0 -0 -0 -0
-0 -0 -0 -0 -0 -0 -0 -0 -0 -0 -0 -0 -0 -0 -0 -0 -0 -0 -0 -0 -0 -0 -0 -0 -0 -0 -0 -0 -0 -0 -0 -0 -0 -0 -0 -0 -0 -0 -0 -0 -0 -0 -0 -0 -0 -0 -0 -0 -0
-0 -0 -0 -0 -0 -0 -0 -0 -0 -0 -0 -0 -0 -0 -0 -0 -0 -0 -0 -0 -0 -0 -0 -0 -0 -0 -0 -0 -0 -0 -0 -0 -0 -0 -0 -0 -0 -0 -0 -0 -0 -0 -0 -0 -0 -0 -0 -0 -0
-0 -0 -0 -0 -0 -0 -0 -0 -0 -0 -0 -0 -0 -0 -0 -0 -0 -0 -0 -0 -0 -0 -0 -0 -0 -0 -0 -0 -0 -0 -0 -0 -0 -0 -0 -0 -0 -0 -0 -0 -0 -0 -0 -0 -0 -0 -0 -0 -0
-0 -0 -0 -0 -0 -0 -0 -0 -0 -0 -0 -0 -0 -0 -0 -0 -0 -0 -0 -0 -0 -0 -0 -0 -0 -0 -0 -0 -0 -0 -0 -0 -0 -0 -0 -0 -0 -0 -0 -0 -0 -0 -0 -0 -0 -0 -0 -0 -0
-0 -0 -0 -0 -0 -0 -0 -0 -0 -0 -0 -0 -0 -0 -0 -0 -0 -0 -0 -0 -0 -0 -0 -0 -0 -0 -0 -0 -0 -0 -0 -0 -0 -0 -0 -0 -0 -0 -0 -0 -0 -0 -0 -0 -0 -0 -0 -0 -0
-0 -0 -0 -0 -0 -0 -0 -0 -0 -0 -0 -0 -0 -0 -0 -0 -0 -0 -0 -0 -0 -0 -0 -0 -0 -0 -0 -0 -0 -0 -0 -0 -0 -0 -0 -0 -0 -0 -0 -0 -0 -0 -0 -0 -0 -0 -0 -0 -0
-0 -0 -0 -0 -0 -0 -0 -0 -0 -0 -0 -0 -0 -0 -0 -0 -0 -0 -0 -0 -0 -0 -0 -0 -0 -0 -0 -0 -0 -0 -0 -0 -0 -0 -0 -0 -0 -0 -0 -0 -0 -0 -0 -0 -0 -0 -0 -0 -0
-0 -0 -0 -0 -0 -0 -0 -0 -0 -0 -0 -0 -0 -0 -0 -0 -0 -0 -0 -0 -0 -0 -0 -0 -0 -0 -0 -0 -0 -0 -0 -0 -0 -0 -0 -0 -0 -0 -0 -0 -0 -0 -0 -0 -0 -0 -0 -0 -0
-0 -0 -0 -0 -0 -0 -0 -0 -0 -0 -0 -0 -0 -0 -0 -0 -0 -0 -0 -0 -0 -0 -0 -0 -0 -0 -0 -0 -0 -0 -0 -0 -0 -0 -0 -0 -0 -0 -0 -0 -0 -0 -0 -0 -0 -0 -0 -0 -0
-0 -0 -0 -0 -0 -0 -0 -0 -0 -0 -0 -0 -0 -0 -0 -0 -0 -0 -0 -0 -0 -0 -0 -0 -0 -0 -0 -0 -0 -0 -0 -0 -0 -0 -0 -0 -0 -0 -0 -0 -0 -0 -0 -0 -0 -0 -0 -0 -0
-0 -0 -0 -0 -0 -0 -0 -0 -0 -0 -0 -0 -0 -0 -0 -0 -0 -0 -0 -0 -0 -0 -0 -0 -0 -0 -0 -0 -0 -0 -0 -0 -0 -0 -0 -0 -0 -0 -0 -0 -0 -0 -0 -0 -0 -0 -0 -0 -0
-0 -0 -0 -0 -0 -0 -0 -0 -0 -0 -0 -0 -0 -0 -0 -0 -0 -0 -0 -0 -0 -0 -0 -0 -0 -0 -0 -0 -0 -0 -0 -0 -0 -0 -0 -0 -0 -0 -0 -0 -0 -0 -0 -0 -0 -0 -0 -0 -0
-0 -0 -0 -0 -0 -0 -0 -0 -0 -0 -0 -0 -0 -0 -0 -0 -0 -0 -0 -0 -0 -0 -0 -0 -0 -0 -0 -0 -0 -0 -0 -0 -0 -0 -0 -0 -0 -0 -0 -0 -0 -0 -0 -0 -0 -0 -0 -0 -0
-0 -0 -0 -0 -0 -0 -0 -0 -0 -0 -0 -0 -0 -0 -0 -0 -0 -0 -0 -0 -0 -0 -0 -0 -0 -0 -0 -0 -0 -0 -0 -0 -0 -0 -0 -0 -0 -0 -0 -0 -0 -0 -0 -0 -0 -0 -0 -0 -0
Wind_Speed
6 6 2 6 7 7 2 1 1 0 5 3 3 10 10 4 2 4 2 4 12 8 6 7 12 13 12 11 12 11 12 13 14 15 16 18 17 17 16 17 16 16 17 17 17 17 17 16 16
4 3 5 3 7 5 3 3 4 2 6 8 8 4 8 4 2 2 2 6 9 10 8 7 12 13 12 11 11 11 11 11 13 14 16 17 16 16 17 17 16 17 16 17 17 17 17 17 17
2 3 5 6 5 5 6 5 7 6 8 3 5 6 4 1 2 2 1 9 8 8 8 8 11 13 13 11 10 11 10 11 12 13 15 16 15 15 16 17 17 17 17 17 17 17 16 17 18
3 6 6 7 3 1 8 7 6 6 4 7 5 7 3 2 2 1 3 10 7 8 8 8 11 13 14 14 11 11 11 12 11 12 13 15 15 14 16 16 16 16 17 16 17 17 17 17 18
5 4 6 4 3 3 1 4 8 4 2 4 2 4 3 3 4 7 8 5 8 6 6 8 10 10 14 13 12 11 11 11 11 11 13 14 14 14 15 15 15 16 16 16 16 16 16 16 17
5 4 6 2 2 2 3 6 7 3 3 3 7 6 4 2 6 5 8 8 6 6 5 6 8 8 7 10 10 9 10 10 10 11 12 15 14 14 14 14 15 16 16 16 16 16 16 16 16
7 5 5 4 4 2 4 6 8 7 5 3 9 6 2 1 5 5 8 8 8 7 7 5 5 7 8 7 9 9 9 9 10 10 12 14 13 12 12 12 13 16 17 15 13 14 14 14 14
6 5 3 3 6 4 3 3 5 5 3 3 2 7 6 6 8 7 7 7 7 6 6 6 4 2 5 4 6 9 9 9 9 10 11 11 12 11 12 10 10 13 16 16 12 12 12 12 12
4 6 2 0 5 4 2 5 1 3 7 4 4 4 2 10 8 7 5 4 4 5 6 5 5 3 2 4 4 7 9 9 8 8 10 9 4 5 7 6 9 8 9 13 13 11 9 9 9
6 5 5 2 3 5 5 5 7 4 4 4 3 3 4 7 7 8 6 5 3 3 4 5 5 5 3 2 4 5 6 4 4 5 6 4 4 4 5 7 9 9 8 8 10 10 11 7 4
3 5 3 2 2 4 5 2 3 9 3 7 10 10 6 6 7 8 6 5 6 3 1 3 3 4 3 2 1 2 2 3 2 4 5 6 4 4 3 3 3 3 6 3 5 5 4 6 5
3 1 2 3 0 3 5 3 4 5 6 2 9 9 7 10 9 9 8 7 6 4 1 2 3 3 3 2 3 4 4 3 3 4 5 6 5 4 3 3 3 3 2 4 4 3 5 6 6
2 1 1 3 4 2 1 3 4 5 2 6 11 8 10 8 8 6 7 5 6 4 2 1 2 2 2 4 5 5 5 4 4 5 6 5 5 5 5 5 4 4 4 4 4 4 5 6 6
3 0 3 4 3 3 5 3 3 2 6 7 9 9 8 9 9 5 6 7 6 5 3 1 3 3 5 5 7 6 5 5 5 5 5 7 6 6 5 5 4 4 4 4 4 4 5 4 5
2 3 4 6 5 4 4 5 10 6 8 9 9 8 8 9 8 9 8 7 7 5 5 4 3 3 5 6 7 6 5 6 6 6 8 8 7 7 6 5 5 4 4 6 5 5 5 5 4
2 4 2 3 7 2 6 8 4 9 13 11 10 8 8 8 9 8 7 7 6 6 6 5 4 5 4 8 6 5 6 5 6 7 7 9 8 7 7 6 4 4 4 4 4 4 5 4 5
4 4 5 8 7 4 5 6 2 6 9 9 10 10 9 8 8 7 7 7 7 6 7 6 7 7 7 9 7 7 8 6 6 5 7 8 7 7 7 5 4 5 5 5 4 5 4 4 4
6 5 5 5 4 2 4 12 5 7 8 12 10 10 10 11 13 8 8 7 7 6 6 7 6 8 9 8 8 7 7 6 5 5 7 6 6 8 8 6 6 4 6 5 4 5 6 4 3
4 4 4 4 4 6 9 9 11 9 8 10 10 13 14 16 8 8 7 7 7 6 7 7 9 9 9 8 7 4 4 4 5 5 7 6 6 7 8 6 6 5 6 5 4 3 6 8 4
4 4 8 7 5 7 6 11 11 6 10 14 18 16 18 9 10 11 9 9 9 9 8 7 9 10 7 6 6 5 4 4 4 4 6 5 7 6 8 7 6 6 7 6 5 4 3 4 5
6 8 5 8 2 3 3 7 10 11 8 7 14 17 14 19 18 15 13 13 10 11 9 10 10 10 7 9 9 8 8 5 3 4 4 4 6 7 8 7 7 7 5 6 5 5 6 4 4
7 7 6 5 2 6 3 9 6 7 12 9 18 15 17 15 14 16 16 14 14 11 8 8 8 8 10 11 11 14 7 8 2 2 3 4 6 7 6 7 7 6 5 7 5 5 4 4 3
8 4 5 3 4 2 3 6 7 4 8 12 19 13 14 16 22 22 21 18 13 10 10 9 9 10 11 10 10 8 8 7 5 4 7 6 5 6 6 6 7 7 6 5 7 7 7 4 4
6 6 6 5 3 5 10 9 6 7 14 9 17 12 14 17 19 17 14 13 10 8 8 10 12 10 10 10 10 12 15 13 10 7 7 4 4 4 6 6 6 6 6 7 6 7 7 5 5
5 7 3 4 1 10 3 6 14 7 11 15 16 10 11 11 15 16 17 16 14 14 12 10 13 11 10 11 10 11 14 15 15 12 9 10 6 3 5 6 6 6 7 7 7 6 5 5 4
8 10 9 9 6 6 0 10 8 14 13 7 9 8 7 9 12 15 17 16 16 15 13 12 13 12 11 11 11 10 12 9 9 8 8 6 5 6 5 6 7 7 7 6 6 4 4 5 5
8 9 5 2 2 2 7 9 8 10 10 10 12 4 7 10 13 15 15 15 15 15 15 14 13 12 12 13 11 12 11 10 10 8 6 5 6 6 6 6 7 6 6 6 6 4 5 5 4
7 8 3 1 3 7 6 7 10 4 12 13 14 7 10 8 9 11 13 14 13 13 12 10 11 13 13 12 12 11 11 9 10 10 10 10 7 7 8 7 7 7 6 6 6 5 4 5 3
5 6 4 5 7 6 3 9 8 13 12 12 12 9 10 12 13 13 12 11 11 11 10 11 10 11 11 12 11 12 11 11 11 10 9 10 8 9 9 8 8 7 7 6 6 5 6 5 5
1 4 7 6 7 6 3 18 6 6 6 8 10 9 9 12 13 13 12 12 12 13 13 13 12 12 12 11 11 12 11 11 11 10 9 9 10 8 9 8 7 6 6 6 7 7 5 5 5
Wind_Direction
332 331 83 43 58 66 40 79 238 56 46 353 43 102 112 65 70 180 285 92 130 136 127 126 117 115 112 112 110 109 102 100 93 100 98 88 84 79 73 70 65 59 55 50 49 49 48 44 41
338 0 44 81 83 73 288 300 110 133 138 147 90 66 52 54 48 106 90 166 138 139 141 136 132 127 123 113 114 108 102 102 99 105 103 97 91 84 81 76 72 66 61 58 50 46 43 41 38
328 61 78 87 108 152 167 219 159 133 174 149 92 56 94 78 338 164 190 159 135 145 149 150 146 141 132 123 111 105 102 100 99 109 105 101 96 89 85 79 72 66 62 59 57 56 50 47 44
55 12 33 78 86 266 158 195 190 136 148 84 121 68 36 352 338 11 13 153 139 156 150 156 155 157 143 131 125 123 120 115 116 114 117 112 104 97 92 87 80 73 68 63 62 59 56 54 53
40 59 57 66 29 97 89 192 151 126 87 74 141 148 100 34 47 34 59 84 137 147 146 161 168 171 141 141 141 139 134 129 121 118 126 121 116 110 106 100 91 83 75 68 66 63 60 59 60
45 92 66 155 206 145 160 184 133 114 126 169 73 101 173 340 71 29 62 66 59 100 121 118 107 111 131 142 146 150 144 141 133 132 133 133 131 127 121 114 106 95 81 72 68 65 63 61 59
104 80 172 143 178 154 192 151 138 145 128 71 143 111 194 216 123 107 81 64 56 49 60 65 100 114 122 138 149 159 155 154 150 147 145 146 141 135 130 128 120 111 104 93 86 76 68 68 68
101 91 103 190 183 211 234 92 125 134 119 122 92 167 188 208 140 101 73 68 63 56 57 48 44 120 146 147 165 171 171 167 163 150 143 145 147 153 142 152 143 125 119 113 100 84 73 66 68
96 64 94 340 161 217 211 128 123 73 98 59 359 139 176 134 121 93 79 54 49 37 38 40 41 31 64 157 182 182 172 172 157 144 148 145 147 147 148 123 117 110 103 111 111 109 99 79 58
81 97 194 199 198 209 186 150 153 116 114 56 50 36 86 126 141 129 130 125 108 87 32 22 14 354 356 334 201 201 163 163 157 145 151 134 142 117 94 104 114 111 93 87 96 105 105 83 64
142 156 190 231 268 159 171 151 190 124 228 189 185 175 150 130 136 141 155 163 165 135 82 13 360 339 316 266 184 58 87 109 93 177 164 149 111 102 108 106 105 113 94 72 74 56 38 52 54
94 133 173 176 319 122 167 154 143 179 210 227 162 150 140 146 157 162 166 172 154 151 142 346 344 305 283 296 88 84 83 52 57 59 97 130 127 126 98 95 84 83 108 90 60 58 50 44 51
105 246 271 162 142 125 126 190 183 199 180 101 121 137 153 158 166 176 167 156 148 157 179 32 10 8 158 129 87 81 72 67 57 56 47 66 94 94 88 67 58 46 54 65 61 58 50 41 38
160 129 259 231 203 187 181 222 167 173 155 135 145 162 171 173 176 156 174 169 167 162 177 107 85 145 126 104 101 104 94 81 72 70 61 65 84 88 82 79 70 57 59 64 68 62 67 50 51
64 319 320 225 202 213 138 284 236 164 163 172 181 179 184 192 183 191 193 176 171 174 158 143 119 65 97 107 106 103 107 102 97 89 75 71 77 88 94 91 83 69 73 76 72 59 63 52 43
48 48 342 296 144 234 127 263 249 167 163 195 194 198 199 203 201 196 189 175 174 158 162 136 120 93 91 106 102 102 98 104 104 103 98 89 83 90 90 90 82 74 70 75 68 47 60 57 67
358 232 215 312 196 132 171 253 255 159 171 200 204 205 209 209 213 208 190 177 174 170 155 143 131 121 108 91 85 77 73 67 62 76 91 89 89 91 96 90 76 78 76 66 69 50 71 48 45
202 222 243 228 207 182 204 261 248 190 193 214 204 214 213 210 213 194 184 175 171 168 159 147 139 133 118 105 98 85 77 68 71 81 83 80 92 94 97 85 80 74 84 70 63 77 57 72 67
162 194 235 257 223 166 225 253 261 201 223 234 225 219 217 217 187 183 183 174 168 171 164 164 150 151 139 132 122 108 102 91 76 71 84 90 92 94 100 95 89 80 84 75 53 79 55 36 6
234 247 259 273 242 178 248 246 258 197 224 218 222 223 219 186 178 186 182 179 180 176 180 168 162 161 155 140 115 117 121 82 82 88 73 75 93 93 94 101 94 88 92 71 61 66 92 58 6
234 210 227 232 340 262 327 272 245 253 228 241 236 229 217 200 186 182 187 188 181 185 179 172 165 166 136 124 113 103 101 95 87 67 68 48 81 82 90 91 92 87 88 86 69 68 85 113 23
239 206 198 209 125 242 152 280 264 241 246 226 244 223 219 192 182 180 184 189 189 187 167 167 161 145 140 144 142 148 144 137 145 115 93 75 65 80 87 93 94 89 86 85 79 59 77 100 123
227 167 195 202 190 352 215 286 258 235 258 255 250 229 214 190 182 185 189 186 182 169 166 154 148 146 151 154 156 141 127 111 116 107 105 99 80 79 83 87 91 92 87 85 89 71 61 45 90
133 82 49 52 80 259 225 204 197 208 231 249 254 245 203 190 191 187 178 165 165 156 154 158 156 157 158 155 151 148 139 139 140 142 131 118 99 92 84 90 95 96 98 90 85 79 80 82 78
118 102 298 319 332 240 284 234 252 254 248 226 251 257 209 188 177 170 166 172 170 170 167 166 165 162 155 154 150 151 150 153 153 152 148 144 137 126 132 123 118 109 106 102 99 99 103 101 102
196 163 167 212 215 255 352 239 249 227 258 275 260 272 180 170 179 180 176 173 171 172 171 170 167 161 159 157 156 153 153 154 155 153 150 145 144 146 148 129 113 108 110 105 101 100 103 105 102
196 215 170 24 69 1 223 286 290 252 277 276 259 204 176 184 183 179 171 174 172 175 178 173 165 163 165 165 158 161 158 155 156 138 134 140 134 139 136 123 117 122 120 120 124 119 118 116 106
161 162 97 31 222 255 268 259 233 234 229 247 266 203 198 176 169 175 177 176 179 177 172 171 170 168 166 163 165 164 160 151 148 150 154 152 146 142 139 132 134 135 135 133 126 123 132 120 120
144 191 188 139 158 203 285 254 218 209 209 225 250 231 185 185 181 180 180 179 176 168 167 168 167 161 163 166 162 158 157 154 153 155 153 154 148 150 148 151 147 147 146 147 137 138 143 138 139
177 219 162 147 213 231 185 254 184 194 187 206 253 230 194 185 180 181 177 169 170 174 174 176 173 170 172 167 161 164 158 154 153 155 157 158 158 156 153 154 153 149 150 153 154 156 149 161 176